Погода в Шымкенте

Погода в Шымкенте : погода сейчас, прогноз погоды и архив. Всё, что Вы хотите узнать о погоде в Шымкенте!

Поиск расширенной информации на нашем сайте:

Полезная информация:

Другие новости

Новости СМИ2

Главная страница сайта

Новости сайта

03.07.2017

Напоминаем, что на нашем специализированном сайте Метеоцентр.Азия вы можете получить высокодетализированные автоматические прогнозы погоды по пунктам России, СНГ и мира в авиационном формате (включающие направление и скорость ветра, видимость, явления погоды, количество и форму облачности, нижнюю и верхнюю границу облачности).

Рекомендуем:

Погода в Шымкенте - сегодня

Время (UTC), дата Ветер
(°,м/с) 
Видим.   Явления Облачность Т
(°С)
Тd
(°С)
f(%) Тe
(°С)
Pmin
(гПа)
dP
(гПа)
Po
(мм)
O2
(г/м3)
Тmin Tmax R s Состояние
почвы
09 15.09.19 280 (З) 20000 м  в посл. час ливневой дождь  9/8 600 м кучево-дожд., средняя 
[Cb cap|Ac trans]
+20.5 +7.6 43 +21  1016.5  -0.2  711  265           
12 15.09.19 170 (Ю) 20000 м  в посл. час ливневой дождь{гроза}  8/8 600 м кучево-дожд. 
[Cb cap]
+17.6 +11.5 67 +23  1018.6  1.5  712  267           
15 15.09.19 160 (Ю) н/о  {ливн. осадки}  3/3 600 м 
[Sc]
+15.3 +9.7 69 +19  1019.7  0.5  713  270    +20.6     
18 15.09.19 140 (ЮВ) н/о  {ливн. осадки}  ясно 
+14.8 +6.6 58 +15  1019.1  -0.8  712  271    +20.6     
21 15.09.19 140 (ЮВ) н/о    ясно 
+14.3 +5.2 54 +16  1018.9  -0.4  712  272           
00 16.09.19 тихо ()   н/о    ясно 
+9.2 +4.6 73 +9  1021  0.8  712  277           
03 16.09.19 140 (ЮВ) 20000 м    6/0 средняя 
[Ac trans]
+17.4 +5.5 45 +19  1019.4  0.5  713  269           
06 16.09.19 230 (ЮЗ) 20000 м    1/0 средняя 
[Ac trans]
+23.2 +2.9 26 +23  1017.9  -0.8  713  264  +8         
09 16.09.19 280 (З) 20000 м    10/3 600 м кучево-дожд., средняя, верхняя 
[Cb cap|Ac trans|Ci ing]
+24.1 +1.9 23 +24  1017.1  -0.6  712  263           
12 16.09.19 290 (З) 20000 м    9/6 600 м кучево-дожд., средняя 
[Cb cap|Ac trans]
+22.1 +0.4 24 +22  1017.6  712  265           
15 16.09.19 300 (СЗ) н/о    ясно 
+15.4 +1.7 39 +17  1020  0.8  713  272    +24.4       
18 16.09.19 120 (ЮВ) н/о    ясно 
+12.5 +3 52 +14  1021.1  0.4  713  274    +24.4       
21 16.09.19 100 (В) н/о    ясно 
+12.5 +2.2 49 +14  1020.9  -0.2  713  274           
00 17.09.19 080 (В) н/о    ясно 
+11.5 +1.3 49 +12  1021.5  0.3  713  275           
03 17.09.19 100 (В) 20000 м    ясно 
+17.4 +2.4 37 +19  1021.1  714  270           
06 17.09.19 030 (СВ) 20000 м    ясно 
+24.3 -0.8 19 +24  1019.7  0.1  714  264  +11.5         
09 17.09.19 тихо ()   20000 м    ясно 
+26.2 -0.9 17 +26  1018  -1.1  713  262           
12 17.09.19 090 (В) 20000 м    ясно 
+26 -0.5 18 +26  1016.5  -1.4  712  262           
15 17.09.19 090 (В) н/о    ясно 
+16.5 +1.6 37 +18  1018.1  -0.6  712  270    +27.2       
18 17.09.19 100 (В) н/о    ясно 
+16.3 +1.9 38 +17  1016.9  -1.1  711  270    +27.2       
21 17.09.19 080 (В) н/о    ясно 
+15.4 +0.1 35 +16  1016  -1.1  710  271           
00 18.09.19 090 (В) н/о    ясно 
+14 +0.1 39 +15  1015.6  -0.8  709  272           
03 18.09.19 100 (В) 21  20000 м    ясно 
+20.9 +2.4 29 +21  1013.7  -0.2  709  265           
06 18.09.19 270 (З) 20000 м    ясно 
+28.4 +0.7 17 +28  1011.7  -0.2  709  259  +13.5         
09 18.09.19 290 (З) 20000 м    ясно 
+29.4 -0.6 14 +29  1010.5  -0.9  708  258           
Время (UTC), дата Ветер
(°,м/с) 
Видим.   Явления Облачность Т
(°С)
Тd
(°С)
f(%) Тe
(°С)
Pmin
(гПа)
dP
(гПа)
Po
(мм)
O2
(г/м3)
Тmin Tmax R s Состояние
почвы

Для получения пояснительной информации подведите курсор к названию столбца.

ПОГОДА в Шымкенте - архив

Всё, что Вы хотите узнать о погоде в Шымкенте - удобно и подробно!

Выберите нужную дату (начиная с 1 января 2018* года) и нажмите кнопку "Найти".
Будут отображены архивные сводки погоды по пункту Шымкент, начиная с указанной даты.


Отображать данные в формате CSV (для использования в таблицах Excel)


Внимание! Наш архив погоды предназначен исключительно для личного некоммерческого использования в познавательных целях. Если Вам необходимы официальные справки о состоянии погоды (для производственных, юридических, коммерческих и т.п. целей), обращайтесь в органы Росгидромета.

*Примечание: данная дата относится к архиву по метеостанциям СССР (Россия, СНГ, Балтия).
Архив по метеостанциям Зарубежной Европы и Азии (кроме Китая) хранится 10 дней, по другим регионам земного шара (Китай, Африка, Америка, Австралия, Океания) - 1 день.

Шымкент - район местоположения метеостанции


Название, широта, долгота, высота метеостанции:
Шымкент (город) 42.3°ш. 69.7°д. 604 м над ур. моря [Казахстан]

Дополнительная информация

В oтличие oт бoльшинства пoгoдных сайтoв мы публикуем пoдрoбную метеoинфoрмацию в детальнoм прoфессиoнальнoм фoрмате.

Характеристики температуры и влажнoсти вoздуха измеряются на высoте 2 м в тени вдали oт зданий и деревьев.
Скoрoсть ветра измеряется на высoте 10 м (на урoвне рoста челoвека скoрoсть ветра ниже в 1.5-2 раза). Если метеoстанция нахoдится в гoрoде или в лесу, тo скoрoсть ветра занижена на 2-4 м/с пo сравнению с oткрытым местoм. Скoрoсть ветра над акватoриями крупных рек и oзёр, а также на вершинах хoлмoв на 2-5 м/с выше, чем в oбычных услoвиях.
Атмoсфернoе давление в разных тoчках местнoсти мoжет значительнo oтличаться oт давления на метеoстанции, в зависимoсти oт услoвий рельефа (при пoдъёме на 10 м давление пoнижается примернo на 1 мм рт.ст.).